Regional Weather Roundup
Issued by NWS

Home | Current Version | Previous Version | Text Only | Print | Product List | Glossary Off
Versions: 1 2 3 4 5 6 7 8 9 10 11 12 13 14 15 16 17 18 19 20 21 22 23 24 25 26 27 28 29 30 31 32 33 34 35 36 37 38 39 40 41 42 43 44 45 46 47 48 49 50

000
ASUS43 KLOT 291308
RWRIL

ILLINOIS REGIONAL WEATHER ROUNDUP
NATIONAL WEATHER SERVICE CHICAGO/ROMEOVILLE IL
800 AM CDT FRI APR 29 2016

NOTE: "FAIR" INDICATES FEW OR NO CLOUDS BELOW 12,000 FEET WITH NO
SIGNIFICANT WEATHER AND/OR OBSTRUCTIONS TO VISIBILITY.

* THESE STATIONS ARE NOT UNDER NWS QUALITY CONTROL. THEY ALSO MAY NOT
  REPORT WEATHER SUCH AS PRECIPITATION OR FOG.

ILZ001-002-007-009-015-016-024-291400-
NORTHWEST ILLINOIS

CITY           SKY/WX    TMP DP  RH WIND       PRES   REMARKS
MOLINE         CLOUDY    46  40  79 N5        30.07S
STERLING*      CLOUDY    43  39  87 N10       30.07F
SAVANNA*       CLOUDY    42  39  88 N8        30.09F
$$

ILZ003-004-008-010-011-017-018-291400-
NORTH CENTRAL ILLINOIS

CITY           SKY/WX    TMP DP  RH WIND       PRES   REMARKS
ROCKFORD       CLOUDY    43  39  86 N12       30.11F
FREEPORT*      CLOUDY    41  38  90 N9        30.11F
ROCHELLE*      CLOUDY    42  39  91 N9        30.09F
DE KALB*       CLOUDY    42  40  92 N10       30.08F
$$

ILZ005-006-012>014-019>023-291400-
NORTHEAST ILLINOIS

CITY           SKY/WX    TMP DP  RH WIND       PRES   REMARKS
CHICAGO-OHARE  CLOUDY    42  40  92 N9        30.08S FOG
CHICAGO-MIDWAY CLOUDY    44  40  85 N9        30.07F FOG
AURORA         CLOUDY    44  40  85 N12       30.08F FOG
LANSING*       CLOUDY    45  42  90 N6        30.07F FOG
JOLIET*        CLOUDY    47  43  88 N8        30.07S
WAUKEGAN       CLOUDY    42  39  89 N8        30.08S
DUPAGE AIRPORT CLOUDY    43  39  86 NW10      30.07F
KANKAKEE*      CLOUDY    48  44  85 N9        30.06F FOG
WHEELING       CLOUDY    42  39  89 N7        30.09F
MORRIS*        CLOUDY    45  42  90 N7        30.06F
ROMEOVILLE*    CLOUDY    44  41  88 N8        30.07S FOG
NORTHERLY ISL    N/A     42  40  92 N7          N/A
NORTHERLY ISL    N/A     42  40  92 N7          N/A
$$

LMZ740>746-291400-
SOUTHERN LAKE MICHIGAN

STATION/POSITION SKY/WX   TEMP    WIND        PRES    VSBY  WAVE
                          AIR SEA DIR/SP/G                  HT/PER
                          (F)     (DEG/KT/KT) (MB)    (MI)  (FT/S)
SOUTHERN BUOY              40 40   20/  8/ 10 1018.9R         1/ 3
HARRISON CRIB              42     330/ 16/ 17   N/A
BURNHAM HARBOR             42     340/  8/ 10   N/A
CALUMET HARBOR             44     320/  4/  6 1017.9R
BURNS HARBOR               42     330/ 12/ 16 1018.6R
MICHIGAN CITY              42     260/ 12/ 14   N/A
ST. JOSEPH                 42 46     CALM       N/A           2/ 2
$$

ILZ025>027-034>036-040-047-049-050-058-095>099-291400-
WEST-CENTRAL ILLINOIS

CITY           SKY/WX    TMP DP  RH WIND       PRES   REMARKS
QUINCY         CLOUDY    51  47  86 NE15G21   30.03R
GALESBURG*     CLOUDY    45  45  99 N12       30.04F FOG
MACOMB*        CLOUDY    48  46  94 NE14      30.07S FOG
JACKSONVILLE*  PTSUNNY   52  49  88 N5        30.03F
PITTSFIELD*    CLOUDY    50  48  93 NE5       30.07R
$$

ILZ028>032-037-038-041>044-048-051>054-059>061-291400-
CENTRAL ILLINOIS

CITY           SKY/WX    TMP DP  RH WIND       PRES   REMARKS
PONTIAC        CLOUDY    47  46  95 N12       30.05F FOG
BLOOMINGTON    CLOUDY    50  49  96 N13       30.05S FOG
DECATUR        MOSUNNY   55  50  83 N9        30.05R
PEORIA         CLOUDY    48  43  82 N10G18    30.05F HAZE
LACON*         CLOUDY    46  43  90 N5        30.06R FOG
LINCOLN*       CLOUDY    52  51  93 N6        30.07R FOG
SPRINGFIELD    CLOUDY    52  49  89 NE10      30.03F
TAYLORVILLE    MOSUNNY   54  50  87 N10       30.03F
$$

ILZ033-039-045-046-055>057-062-063-291400-
EAST-CENTRAL ILLINOIS

CITY           SKY/WX    TMP DP  RH WIND       PRES   REMARKS
CHAMPAIGN      CLOUDY    51  49  92 N8        30.05R FOG
RANTOUL*       CLOUDY    52  50  94 N10       30.03F FOG
MATTOON        CLOUDY    54  49  83 NW8       30.05
PARIS*         SUNNY     53  51  91 W3        30.05R
$$

ILZ079-100>102-291400-
SOUTHWEST ILLINOIS

CITY           SKY/WX    TMP DP  RH WIND       PRES   REMARKS
ALTON          PTSUNNY   54  48  82 N7        30.06R
BELLEVILLE     CLOUDY    56  52  84 NE5       30.05R
CAHOKIA*       CLOUDY    57  49  74 NE8       30.06R
SPARTA*        MOSUNNY   55  50  85 NE5       30.06S
$$

ILZ064>066-069>071-074>076-080>082-084>086-088>090-092>094-291400-
SOUTH-CENTRAL ILLINOIS

CITY           SKY/WX    TMP DP  RH WIND       PRES   REMARKS
CARBONDALE     CLOUDY    58  52  80 NE3       30.04R
CAIRO*         PTSUNNY   58  52  78 NE10      30.03S
EFFINGHAM*     MOSUNNY   55  53  95 N3        30.06S
MARION         MOSUNNY   59  54  82 NE7       30.06R
MT. VERNON     SUNNY     55  48  76 NE3       30.06R
CENTRALIA*     MOSUNNY   57  52  84 N3        30.05R
SALEM*         SUNNY     57  52  82 N6        30.05R
METROPOLIS*    CLOUDY    60  54  81 E6        30.04R
$$

ILZ067-068-072-073-078-083-087-091-291400-
SOUTHEAST ILLINOIS

CITY           SKY/WX    TMP DP  RH WIND       PRES   REMARKS
LAWRENCEVILLE  SUNNY     56  52  86 CALM      30.05S
FLORA*         SUNNY     57  52  84 N5        30.06R
FAIRFIELD*     SUNNY     57  52  84 CALM      30.04R
HARRISBURG*    MOSUNNY   59  53  80 E3        30.06R
ROBINSON*      MOSUNNY   53  51  91 CALM      30.06R
CARMI*         SUNNY     58  54  85 E3        30.05R
$$

ABBREVIATIONS USED IN REMARKS
   TC - TEMPERATURE IN CELSIUS
  WCI - WIND CHILL INDEX
   HX - HEAT INDEX
  VSB - VISIBILITY
$$




USA.gov is the U.S. government's official web portal to all federal, state and local government web resources and services.